Home > Weather > Salt Lake City > Past weeks

Flag for U.S.A. Weather for the Past 2 Weeks in Salt Lake City, Utah, U.S.A.

Now
39 °F

Scattered clouds.


Feels Like: 37 °F
Forecast: 22 / 40 °F
Wind: 3 mph from West

Location: Salt Lake City International Airport

Current Time: Feb 7, 2016 at 2:51:27 PM

Latest Report: Feb 7, 2016 at 1:53 PM


Visibility: 5 mi

Pressure: 30.63 "Hg (26.06 "Hg at 1312m altitude)

Humidity: 57%

Dew point: 25 °F

Location of Salt Lake CityLocation

Historic Weather in Salt Lake City — Graph

°F

Salt Lake City Temperature Yesterday

Maximum temperature yesterday: 41 °F (at 1:53 PM)
Minimum temperature yesterday: 22 °F (at 4:53 AM)
Average temperature yesterday: 29 °F

High & Low Weather Summary for the Past Weeks

 TemperatureHumidityPressure
High47 °F (Jan 29, 11:53 PM)100% (Jan 24, 4:52 AM)30.66 "Hg (Jan 24, 4:52 AM)
Low14 °F (Feb 2, 4:53 AM)45% (Feb 6, 1:53 PM)29.57 "Hg (Feb 1, 1:03 AM)
Average29 °F77%30.25 "Hg
* Reported Jan 23 12:53 PM — Feb 7 12:53 PM, Salt Lake City, Weather by CustomWeather, © 2016

Note: Actual official high and low records may vary slightly from our data, if they occured in-between our weather recording intervals... More about our weather records

Advertising

Salt Lake City Weather History for the Previous 24 Hours

 ConditionsComfort  
Time TempWeatherWind HumidityBarometerVisibility
12:53 PM
Sun, Feb 7
38 °FHaze.3 mph58%30.65 "Hg5 mi
11:53 AM37 °FScattered clouds.No wind60%30.65 "Hg6 mi
10:53 AM34 °FScattered clouds.No wind64%30.66 "Hg6 mi
9:53 AM29 °FScattered clouds.6 mph72%30.66 "Hg6 mi
8:53 AM26 °FScattered clouds.7 mph77%30.65 "Hg6 mi
7:53 AM24 °FBroken clouds.7 mph77%30.64 "Hg6 mi
6:53 AM24 °FPartly cloudy.7 mph77%30.61 "Hg6 mi
5:53 AM25 °FPassing clouds.No wind78%30.59 "Hg7 mi
4:53 AM24 °FPassing clouds.8 mph81%30.57 "Hg7 mi
3:53 AM25 °FPassing clouds.6 mph78%30.54 "Hg6 mi
2:53 AM25 °FPartly cloudy.6 mph81%30.54 "Hg7 mi
1:53 AM27 °FPartly cloudy.5 mph75%30.53 "Hg7 mi
12:53 AM28 °FPassing clouds.3 mph75%30.54 "Hg8 mi
11:53 PM
Sat, Feb 6
29 °FPassing clouds.7 mph72%30.55 "Hg8 mi
10:53 PM28 °FPassing clouds.3 mph75%30.55 "Hg9 mi
9:53 PM28 °FPassing clouds.6 mph78%30.54 "Hg8 mi
8:53 PM30 °FPassing clouds.3 mph79%30.52 "Hg8 mi
7:53 PM30 °FPassing clouds.No wind79%30.54 "Hg9 mi
6:53 PM31 °FPassing clouds.3 mph76%30.53 "Hg9 mi
5:53 PM32 °FPartly cloudy.3 mph75%30.52 "Hg10 mi
4:53 PM34 °FMore clouds than sun.7 mph73%30.52 "Hg10 mi
3:53 PM37 °FPartly sunny.6 mph62%30.51 "Hg10 mi
2:53 PM38 °FPartly sunny.7 mph60%30.51 "Hg10 mi
Weather by CustomWeather, © 2016

See weather overviewHow to use our weather pages